ONEWEB-0029, 45445

Orbit data source: Space-Track

ONEWEB-0029, 45445 is a payload satellite owned by One Web (UK) in LEO that was launched on Sat, 21 Mar 2020 UTC via a SOYUZ-2-1B launch vehicle from the Tyuratam Missile And Space Complex (TTMTR). Payload-class satellites include a variety of spacecraft equipped with specific instruments for various scientific and technological missions. These include communications satellites like Starlink; space stations such as the ISS; scientific satellites like the Hubble; Earth observation satellites from companies like Planet Labs, Umbra, and HawkEye 360; GPS; miniature CubeSats for education and research; and military/defense satellites.

Loading next visibility...
Identifier
45445, 2020-020X
Orbit
LEO
Country
Flag of UKUK
Related business
Manufacturer
One Web
Mission
Operational Commercial Communications
Bus & Motor
ARROW, Unknown motor
Mass
148 kg wet, ~140 kg dry
Launch date (UTC)
2020-03-21 (6 years ago)
Launch vehicle
SOYUZ-2-1B
Launch site
Tyuratam Missile And Space Complex (TTMTR)
Object type
Payload
Rocket body
Debris
Shape & HBR
Trap Box + 2 Pan, 6.7 m
Radar Cross Section
3.464 m², Large (>1 m²)

Expand to show TLE details & history
Last TLE update: 18 hours ago

TLE from 18 hours ago
0 ONEWEB-0029
1 45445U 20020X   26254.39610387 -.00000116  00000-0 -36435-3 0  9996
2 45445  87.8960   3.9255 0002047 100.8816 259.2543 13.11414552313951
Epoch: 2026-09-11T09:30Z
TLE epoch observation values (Epoch: 2026-09-11T09:30:23.374Z)
Latitude
0.00005°
Longitude
-129.09195°
Altitude
1,220.871 km
Speed
7.244 km/s
True Right ascension
00h 15m 42s
True Declination
0° 00' 00"
Sunlit
Object was in full shadow at epoch
Visualization orbit readout
Latitude
Unknown
Longitude
Unknown
Altitude
Unknown
Speed
Unknown
Apparent Right ascension
Unknown
Apparent Declination
Unknown
Sunlit
N/A
Visualization observer readout
Local Sidereal Time
20:05:37
Azimuth
Unknown
Elevation
Unknown
Doppler factor
Unknown
Orbital elements
Apogee altitude
1,216.364 km
Perigee altitude
1,213.256 km
Semi-major axis
7,592.947 km
Eccentricity
0.0002
Inclination
87.896°
RAAN
3.9255°
Arg. of periapsis
100.8816°
True anomaly
259.23126°
Mean anomaly
259.2543°
Eccentric anomaly
259.24278°
Mean motion
3.28041 °/min
Orbital period
109.74 mins
BSTAR
-0.00036435
Loading maneuver chart data...
Computing Atmospheric mass density...
Loading historical data...
Loading historical data...
Loading historical data...
Loading historical data...
Loading historical data...
Loading historical data...
Loading historical data...

Documentation

Showing up to 5 results
|